Location: Unspecified
(49.9820°N, 20.4363°E)
Time: 03:48:17
(UTC+02:00)

Vanguard 3 - Pass Details

Date: 17 May 2026
Orbit: 507 x 3204 km, 33.3° (Epoch: 6 June)

Event Time Altitude Azimuth Distance (km) Brightness Sun altitude
Rises 18:18:59 0° 270° (W) 7,154 13.6 17.2°
Reaches altitude 10° 18:24:37 10° 262° (W) 6,094 13.3 16.4°
Maximum altitude 18:39:43 32° 210° (SSW) 3,937 11.0 14.0°
Drops below altitude 10° 18:51:03 10° 154° (SSE) 4,544 10.6 12.2°
Sets 18:54:33 0° 144° (SE) 5,179 10.8 11.7°
